Torna al catalogo

DELTA 1 DEB

AttivoPO
NORAD 23310·DEBRIS·🇺🇸 United States

Lanciato Jun 12, 1975 da Vandenberg Space Force Base

Loading…

Prossimi Passaggi (prossime 24 ore)

TLE

AggiornatoSource: Space-Track

Epoca: Sep 13, 2026, 04:57 UTC

1 23310U 75052JZ  26256.20649243  .00000183  00000-0  68033-3 0  9994
2 23310  99.9267 337.8715 0320857 269.4287 112.9637 12.89961696596309

Traccia DELTA 1 DEB in tempo reale con AllMySat

Download on the App Store